sat.trackr.live / text

‹ back to catalog

STARLINK-37470

NORAD 68820 · 2026-089U

PAYLOAD ACTIVE UNKNOWN

§ Identity

Operator
Country
US
Launch date
2026-04-23
Launch site
AFWTR
Launch vehicle
Mass (kg)
RCS (m²)

Purposes: comms

External: N2YO · Heavens-Above · Gunter

§ Orbital elements

Epoch: 2026-09-19T20:35:33.908640Z

Period
93.91 min
Inclination
97.2858°
Eccentricity
0.0003018
Mean motion
15.33430491 rev/d
Perigee alt
463.5 km
Apogee alt
467.7 km
Semi-major
6,843.7 km
B*
5.5731e-4
RAAN
108.6754°
Arg perigee
84.2468°
Mean anomaly
275.9119°
Rev number
2,316

§ Raw data

STARLINK-374701 68820U 26089U   26262.85803135  .00017953  00000+0  55731-3 0  99982 68820  97.2858 108.6754 0003018  84.2468 275.9119 15.33430491 23169

JSON: /api/v1/satellites/68820 · /tle

For live sub-satellite position, see the globe view (requires WebGL).

§ Visibility from observer

Set your observer location to see the next 7 days of passes ≥ 10°. The values pass through the URL so the page stays shareable.

No JS? Fill the form by hand. The geolocation button needs JavaScript.